• In Russia
  • List of Countries
  • For 7 days
  • Water Temperature
  • Satellite Maps
  • Weather Map
  • Weather Widgets
  • user-avatar
    Login

    Hourly Weather Gashey

    Today, 17 July, Tuesday

    Time Temperature Precipitation Wind Pressure Humidity
    00:00 +16°C° 0 mm 1 mps 685 mmHg 84%
    01:00 +16°C° 0 mm 1 mps 685 mmHg 86%
    02:00 +15°C° 0 mm 1 mps 685 mmHg 88%
    03:00 +15°C° 0 mm 1 mps 685 mmHg 89%
    04:00 +15°C° 0 mm 1 mps 685 mmHg 91%
    05:00 +16°C° 0 mm 1 mps 685 mmHg 86%
    06:00 +18°C° 0 mm 2 mps 685 mmHg 81%
    07:00 +20°C° 0 mm 2 mps 685 mmHg 77%
    08:00 +21°C° 0.1 mm 2 mps 685 mmHg 73%
    09:00 +22°C° 0.1 mm 3 mps 685 mmHg 68%
    10:00 +24°C° 0.1 mm 3 mps 685 mmHg 64%
    11:00 +25°C° 0.4 mm 3 mps 685 mmHg 63%
    12:00 +25°C° 0.4 mm 4 mps 685 mmHg 63%
    13:00 +25°C° 0 mm 4 mps 685 mmHg 64%
    14:00 +25°C° 1.1 mm 4 mps 685 mmHg 67%
    15:00 +25°C° 1.1 mm 4 mps 684 mmHg 69%
    16:00 +23°C° 1.1 mm 4 mps 684 mmHg 71%
    17:00 +23°C° 0.5 mm 4 mps 684 mmHg 73%
    18:00 +22°C° 0.5 mm 3 mps 684 mmHg 75%
    19:00 +21°C° 0.5 mm 3 mps 684 mmHg 77%
    20:00 +20°C° 0.1 mm 3 mps 684 mmHg 82%
    21:00 +18°C° 0.1 mm 2 mps 684 mmHg 86%
    22:00 +17°C° 0.1 mm 2 mps 684 mmHg 90%
    23:00 +16°C° 0.1 mm 2 mps 684 mmHg 91%

    Tomorrow, 18 July, Wednesday

    Time Temperature Precipitation Wind Pressure Humidity
    00:00 +16°C° 0.1 mm 2 mps 684 mmHg 93%
    01:00 +15°C° 0.1 mm 1 mps 684 mmHg 94%
    02:00 +15°C° 0 mm 1 mps 684 mmHg 95%
    03:00 +14°C° 0 mm 1 mps 684 mmHg 95%
    04:00 +14°C° 0 mm 1 mps 684 mmHg 96%
    05:00 +15°C° 0.1 mm 1 mps 685 mmHg 90%
    06:00 +18°C° 0.1 mm 1 mps 685 mmHg 85%
    07:00 +20°C° 0.1 mm 1 mps 686 mmHg 79%
    08:00 +21°C° 0.1 mm 1 mps 686 mmHg 74%
    09:00 +23°C° 0.1 mm 1 mps 686 mmHg 68%
    10:00 +24°C° 0.1 mm 1 mps 686 mmHg 62%
    11:00 +25°C° 0 mm 1 mps 686 mmHg 60%
    12:00 +26°C° 0 mm 1 mps 686 mmHg 57%
    13:00 +27°C° 0 mm 1 mps 686 mmHg 54%
    14:00 +27°C° 0.2 mm 1 mps 686 mmHg 54%
    15:00 +27°C° 0.2 mm 1 mps 686 mmHg 54%
    16:00 +27°C° 0.2 mm 1 mps 686 mmHg 54%
    17:00 +26°C° 0.4 mm 1 mps 686 mmHg 59%
    18:00 +25°C° 0.4 mm 1 mps 686 mmHg 65%
    19:00 +24°C° 0.4 mm 1 mps 686 mmHg 70%
    20:00 +23°C° 0 mm 1 mps 686 mmHg 75%
    21:00 +21°C° 0 mm 1 mps 686 mmHg 79%
    22:00 +20°C° 0 mm 1 mps 686 mmHg 84%
    23:00 +19°C° 0 mm 1 mps 685 mmHg 86%

    Day after tomorrow, 19 July, Thursday

    Time Temperature Precipitation Wind Pressure Humidity
    00:00 +19°C° 0 mm 1 mps 685 mmHg 88%
    01:00 +18°C° 0 mm 1 mps 685 mmHg 91%
    02:00 +18°C° 0 mm 1 mps 685 mmHg 92%
    03:00 +16°C° 0 mm 1 mps 685 mmHg 93%
    04:00 +16°C° 0 mm 2 mps 685 mmHg 95%
    05:00 +18°C° 0 mm 2 mps 685 mmHg 89%
    06:00 +19°C° 0 mm 2 mps 685 mmHg 84%
    07:00 +21°C° 0 mm 2 mps 686 mmHg 79%
    08:00 +24°C° 0 mm 2 mps 686 mmHg 71%
    09:00 +26°C° 0 mm 3 mps 686 mmHg 64%
    10:00 +28°C° 0 mm 3 mps 686 mmHg 56%
    11:00 +29°C° 0 mm 3 mps 685 mmHg 51%
    12:00 +30°C° 0 mm 3 mps 685 mmHg 46%
    13:00 +33°C° 0 mm 3 mps 684 mmHg 41%
    14:00 +31°C° 0.1 mm 3 mps 684 mmHg 43%
    15:00 +31°C° 0.1 mm 2 mps 683 mmHg 44%
    16:00 +31°C° 0.1 mm 2 mps 683 mmHg 45%
    17:00 +28°C° 2.7 mm 2 mps 683 mmHg 58%
    18:00 +26°C° 2.7 mm 2 mps 682 mmHg 70%
    19:00 +23°C° 2.7 mm 2 mps 682 mmHg 82%
    20:00 +21°C° 0.7 mm 2 mps 681 mmHg 85%
    21:00 +21°C° 0.7 mm 2 mps 681 mmHg 88%
    22:00 +20°C° 0.7 mm 2 mps 680 mmHg 92%
    23:00 +19°C° 0.3 mm 2 mps 680 mmHg 93%

    20 July, Friday

    Time Temperature Precipitation Wind Pressure Humidity
    00:00 +20°C° 0.3 mm 1 mps 680 mmHg 94%
    01:00 +19°C° 0.3 mm 1 mps 680 mmHg 95%
    02:00 +19°C° 0.9 mm 1 mps 680 mmHg 95%
    03:00 +19°C° 0.9 mm 1 mps 680 mmHg 96%
    04:00 +19°C° 0.9 mm 1 mps 680 mmHg 96%
    05:00 +20°C° 0.7 mm 1 mps 680 mmHg 94%
    06:00 +20°C° 0.7 mm 1 mps 680 mmHg 92%
    07:00 +20°C° 0.7 mm 2 mps 680 mmHg 91%
    08:00 +21°C° 0.1 mm 2 mps 680 mmHg 85%
    09:00 +22°C° 0.1 mm 3 mps 680 mmHg 80%
    10:00 +24°C° 0.1 mm 3 mps 681 mmHg 75%
    11:00 +25°C° 0.4 mm 3 mps 681 mmHg 70%
    12:00 +26°C° 0.4 mm 3 mps 681 mmHg 66%
    13:00 +27°C° 0.4 mm 4 mps 681 mmHg 62%
    14:00 +26°C° 0.1 mm 4 mps 681 mmHg 63%
    15:00 +25°C° 0.1 mm 4 mps 681 mmHg 63%
    16:00 +25°C° 0.1 mm 4 mps 681 mmHg 63%
    17:00 +22°C° 0 mm 4 mps 681 mmHg 66%
    18:00 +20°C° 0 mm 4 mps 681 mmHg 69%
    19:00 +19°C° 0 mm 4 mps 681 mmHg 72%
    20:00 +18°C° 0.1 mm 3 mps 681 mmHg 75%
    21:00 +16°C° 0.1 mm 3 mps 681 mmHg 78%
    22:00 +15°C° 0.1 mm 2 mps 681 mmHg 81%
    23:00 +15°C° 0.1 mm 1 mps 681 mmHg 83%

    21 July, Saturday

    Time Temperature Precipitation Wind Pressure Humidity
    00:00 +15°C° 0.1 mm 1 mps 681 mmHg 85%
    01:00 +14°C° 0.1 mm 1 mps 681 mmHg 86%
    02:00 +14°C° 0.1 mm 1 mps 681 mmHg 87%
    03:00 +14°C° 0.1 mm 1 mps 680 mmHg 87%
    04:00 +14°C° 0.1 mm 1 mps 680 mmHg 88%
    05:00 +15°C° 0 mm 2 mps 681 mmHg 85%
    06:00 +16°C° 0 mm 2 mps 681 mmHg 82%
    07:00 +16°C° 0 mm 3 mps 681 mmHg 79%
    08:00 +16°C° 0.2 mm 3 mps 682 mmHg 79%
    09:00 +15°C° 0.2 mm 4 mps 682 mmHg 79%
    10:00 +17°C° 0.2 mm 4 mps 682 mmHg 79%
    11:00 +15°C° 0.2 mm 4 mps 682 mmHg 80%
    12:00 +15°C° 0.2 mm 4 mps 682 mmHg 82%
    13:00 +15°C° 0.2 mm 4 mps 682 mmHg 84%
    14:00 +15°C° 0.2 mm 4 mps 683 mmHg 84%
    15:00 +15°C° 0.2 mm 4 mps 683 mmHg 84%
    16:00 +15°C° 0.2 mm 4 mps 683 mmHg 84%
    17:00 +15°C° 0.1 mm 4 mps 684 mmHg 84%
    18:00 +15°C° 0.1 mm 4 mps 684 mmHg 84%
    19:00 +14°C° 0.1 mm 4 mps 685 mmHg 84%
    20:00 +14°C° 0.1 mm 3 mps 685 mmHg 85%
    21:00 +13°C° 0.1 mm 3 mps 685 mmHg 86%
    22:00 +12°C° 0.1 mm 3 mps 685 mmHg 88%
    23:00 +12°C° 0 mm 3 mps 685 mmHg 88%

    22 July, Sunday

    Time Temperature Precipitation Wind Pressure Humidity
    00:00 +11°C° 0 mm 3 mps 685 mmHg 89%
    01:00 +12°C° 0 mm 2 mps 685 mmHg 90%
    02:00 +11°C° 0 mm 3 mps 686 mmHg 91%
    03:00 +11°C° 0 mm 3 mps 686 mmHg 92%
    04:00 +11°C° 0 mm 3 mps 686 mmHg 93%
    05:00 +12°C° 0 mm 3 mps 686 mmHg 86%
    06:00 +14°C° 0 mm 3 mps 687 mmHg 79%
    07:00 +17°C° 0 mm 4 mps 687 mmHg 73%
    08:00 +18°C° 0 mm 4 mps 687 mmHg 65%
    09:00 +20°C° 0 mm 4 mps 688 mmHg 57%
    10:00 +22°C° 0 mm 5 mps 688 mmHg 49%
    11:00 +22°C° 0 mm 4 mps 687 mmHg 46%
    12:00 +23°C° 0 mm 4 mps 687 mmHg 42%
    13:00 +25°C° 0 mm 4 mps 687 mmHg 39%
    14:00 +25°C° 0 mm 4 mps 687 mmHg 38%
    15:00 +25°C° 0 mm 4 mps 687 mmHg 38%
    16:00 +26°C° 0 mm 3 mps 687 mmHg 37%
    17:00 +24°C° 0 mm 3 mps 687 mmHg 44%
    18:00 +21°C° 0 mm 2 mps 687 mmHg 50%
    19:00 +21°C° 0 mm 1 mps 687 mmHg 57%
    20:00 +19°C° 0 mm 1 mps 687 mmHg 61%
    21:00 +16°C° 0 mm 1 mps 687 mmHg 66%
    22:00 +15°C° 0 mm 1 mps 687 mmHg 70%
    23:00 +14°C° 0 mm 1 mps 687 mmHg 71%
    Show more